Monistrol de Calders





Hora UTC 10:05
Temperatura 16.9 ºC
Humitat 63.0 %
Pressió 1012.9 hPa
Pluja 0.0 mm
Velocitat vent 3.2 km/h
Direcció vent SW

Dades diàries 2021-05-14



Hora UTC (hivern +1h; estiu +2h)
Temperatura (ºC) Humitat (%) Pressió (hPa) Velocitat vent (km/h) Precipitació (mm)
Hora UTC Aire Humitat Pressió Vel. Dir. Vel. Max Dir. Intent. màx 5 min.
00:05 13.3 81.0 1010.9 1.6 W 1.6 0.0
00:10 13.3 81.0 1010.9 1.6 ESE 8.0 0.0
00:15 13.4 81.0 1010.8 3.2 ESE 3.2 0.0
00:20 13.4 81.0 1010.8 1.6 E 6.4 0.0
00:25 13.4 81.0 1010.7 0.0 E 4.8 0.0
00:30 13.3 81.0 1010.8 0.0 E 1.6 0.0
00:35 13.3 81.0 1010.7 0.0 E 4.8 0.0
00:40 13.3 81.0 1010.7 0.0 E 4.8 0.0
00:45 13.3 81.0 1010.7 0.0 E 3.2 0.0
00:50 13.3 81.0 1010.7 0.0 WNW 6.4 0.0
00:55 13.3 81.0 1010.7 0.0 WNW 6.4 0.0
01:00 13.2 81.0 1010.7 0.0 WNW 0.0 0.0
01:05 13.2 81.0 1010.6 0.0 WSW 4.8 0.0
01:10 13.2 81.0 1010.6 1.6 SSW 4.8 0.0
01:15 13.2 82.0 1010.5 0.0 SSW 3.2 0.0
01:20 13.2 81.0 1010.5 0.0 SSW 3.2 0.0
01:25 13.2 82.0 1010.5 0.0 SSW 4.8 0.0
01:30 13.1 82.0 1010.4 0.0 SSW 4.8 0.0
01:35 13.1 82.0 1010.4 1.6 ESE 4.8 0.0
01:40 13.1 82.0 1010.4 0.0 ESE 4.8 0.0
01:45 13.1 82.0 1010.4 6.4 SW 6.4 0.0
01:50 12.9 82.0 1010.4 0.0 WSW 8.0 0.0
01:55 12.9 82.0 1010.4 0.0 WSW 6.4 0.0
02:00 12.9 82.0 1010.4 0.0 WSW 1.6 0.0
02:05 12.9 82.0 1010.4 0.0 WSW 3.2 0.0
02:10 12.9 82.0 1010.4 1.6 WSW 3.2 0.0
02:15 12.9 82.0 1010.3 1.6 WSW 1.6 0.0
02:20 13.0 82.0 1010.2 0.0 ENE 4.8 0.0
02:25 13.0 82.0 1010.2 0.0 ENE 4.8 0.0
02:30 12.9 82.0 1010.3 0.0 ENE 1.6 0.0
02:35 12.9 82.0 1010.2 0.0 ENE 0.0 0.0
02:40 12.9 83.0 1010.3 0.0 ENE 0.0 0.0
02:45 12.9 83.0 1010.3 0.0 ENE 0.0 0.0
02:50 12.9 83.0 1010.2 0.0 ENE 1.6 0.0
02:55 12.9 83.0 1010.2 0.0 ENE 1.6 0.0
03:00 12.9 83.0 1010.2 0.0 ENE 1.6 0.0
03:05 12.8 83.0 1010.1 0.0 ENE 0.0 0.0
03:10 12.9 83.0 1010.3 0.0 ENE 0.0 0.0
03:15 12.9 83.0 1010.2 0.0 ENE 0.0 0.0
03:20 12.8 83.0 1010.3 0.0 ENE 0.0 0.0
03:25 12.8 83.0 1010.4 0.0 ENE 0.0 0.0
03:30 12.9 83.0 1010.4 0.0 ENE 0.0 0.0
03:35 12.9 83.0 1010.5 0.0 ENE 0.0 0.0
03:40 12.9 83.0 1010.5 0.0 ENE 0.0 0.0
03:45 12.9 83.0 1010.4 0.0 ENE 0.0 0.0
03:50 12.9 82.0 1010.3 0.0 ENE 1.6 0.0
03:55 12.9 82.0 1010.3 0.0 ENE 1.6 0.0
04:00 12.9 82.0 1010.4 0.0 ENE 1.6 0.0
04:05 13.0 82.0 1010.4 0.0 ENE 1.6 0.0
04:10 13.0 82.0 1010.5 0.0 ENE 1.6 0.0
04:15 13.0 82.0 1010.3 1.6 ENE 3.2 0.0
04:20 13.0 82.0 1010.5 0.0 ENE 3.2 0.0
04:25 12.9 82.0 1010.3 3.2 ENE 3.2 0.0
04:30 12.9 83.0 1010.3 0.0 E 4.8 0.0
04:35 12.9 83.0 1010.4 1.6 E 4.8 0.0
04:40 12.8 83.0 1010.4 3.2 E 3.2 0.0
04:45 12.8 83.0 1010.4 1.6 S 4.8 0.0
04:50 12.8 83.0 1010.4 4.8 S 4.8 0.0
04:55 12.8 83.0 1010.4 3.2 S 4.8 0.0
05:00 12.8 83.0 1010.5 1.6 S 4.8 0.0
05:05 12.8 83.0 1010.6 1.6 S 6.4 0.0
05:10 12.8 83.0 1010.7 1.6 S 6.4 0.0
05:15 12.8 83.0 1010.8 0.0 S 4.8 0.0
05:20 12.8 83.0 1010.9 1.6 S 4.8 0.0
05:25 12.8 84.0 1010.8 0.0 S 3.2 0.0
05:30 12.8 84.0 1010.8 3.2 S 4.8 0.0
05:35 12.8 84.0 1010.9 0.0 S 4.8 0.0
05:40 12.8 84.0 1010.9 1.6 S 4.8 0.0
05:45 12.8 84.0 1011.0 0.0 S 4.8 0.0
05:50 12.8 83.0 1011.0 0.0 S 6.4 0.0
05:55 12.8 83.0 1011.1 4.8 SSW 8.0 0.0
06:00 12.8 83.0 1011.2 1.6 SSW 8.0 0.0
06:05 12.8 83.0 1011.4 4.8 W 4.8 0.0
06:10 12.8 84.0 1011.4 3.2 SSE 9.7 0.0
06:15 12.8 84.0 1011.4 0.0 S 9.7 0.0
06:20 12.8 84.0 1011.4 1.6 E 6.4 0.0
06:25 12.7 84.0 1011.5 0.0 WSW 11.3 0.0
06:30 12.7 84.0 1011.6 0.0 WSW 11.3 0.0
06:35 12.7 84.0 1011.6 1.6 SSE 8.0 0.0
06:40 12.7 84.0 1011.7 1.6 SE 6.4 0.0
06:45 12.7 85.0 1011.7 0.0 SE 6.4 0.0
06:50 12.8 84.0 1011.8 0.0 SSW 3.2 0.0
06:55 12.8 84.0 1011.9 12.9 WSW 12.9 0.0
07:00 12.8 84.0 1011.9 4.8 W 14.5 0.0
07:05 12.8 84.0 1011.9 1.6 W 12.9 0.0
07:10 12.9 84.0 1011.9 0.0 WNW 11.3 0.0
07:15 13.0 83.0 1011.9 6.4 SW 16.1 0.0
07:20 13.1 83.0 1012.0 9.7 W 16.1 0.0
07:25 13.1 83.0 1012.1 3.2 WSW 17.7 0.0
07:30 13.0 83.0 1012.2 1.6 SW 14.5 0.0
07:35 12.8 83.0 1012.1 6.4 W 17.7 0.0
07:40 12.7 83.0 1012.2 6.4 NW 17.7 0.0
07:45 12.5 83.0 1012.3 6.4 W 14.5 0.0
07:50 12.5 83.0 1012.4 3.2 WSW 14.5 0.0
07:55 12.9 83.0 1012.3 4.8 WSW 14.5 0.0
08:00 13.2 81.0 1012.5 1.6 W 8.0 0.0
08:05 13.2 80.0 1012.6 4.8 WSW 17.7 0.0
08:10 13.1 80.0 1012.7 3.2 WSW 17.7 0.0
08:15 13.2 80.0 1012.9 6.4 WSW 14.5 0.0
08:20 13.1 79.0 1012.8 6.4 WSW 14.5 0.0
08:25 13.1 80.0 1012.9 0.0 WNW 14.5 0.0
08:30 13.3 79.0 1012.9 3.2 WSW 12.9 0.0
08:35 13.2 79.0 1012.8 0.0 WNW 12.9 0.0
08:40 13.3 79.0 1012.8 0.0 WNW 6.4 0.0
08:45 13.4 79.0 1012.8 3.2 W 4.8 0.0
08:50 13.7 78.0 1012.8 4.8 W 11.3 0.0
08:55 14.0 78.0 1012.7 1.6 SW 11.3 0.0
09:00 14.3 75.0 1012.8 0.0 WSW 11.3 0.0
09:05 14.6 74.0 1012.8 0.0 WNW 9.7 0.0
09:10 14.8 72.0 1012.9 4.8 WNW 12.9 0.0
09:15 14.6 72.0 1012.9 1.6 W 14.5 0.0
09:20 14.8 72.0 1012.9 3.2 S 16.1 0.0
09:25 15.4 70.0 1013.0 0.0 SW 16.1 0.0
09:30 15.9 70.0 1013.0 1.6 WNW 11.3 0.0
09:35 15.9 67.0 1013.0 3.2 SSE 11.3 0.0
09:40 15.9 68.0 1012.9 1.6 SE 12.9 0.0
09:45 16.2 68.0 1012.9 3.2 WNW 12.9 0.0
09:50 16.3 67.0 1013.0 0.0 NW 6.4 0.0
09:55 16.9 66.0 1012.9 1.6 NNE 4.8 0.0
10:00 17.0 62.0 1013.0 1.6 SSE 14.5 0.0
10:05 16.9 63.0 1012.9 3.2 SW 14.5 0.0
Màxima 17.1 85.0 1013.0 12.9 WSW 17.7 0.0
Mínima 12.5 62.0 1010.1
Total 0.0